[[{"header":{"parameterUnit":"m.s-1","parameterCategory":1,"la1":30.2991,"la2":30.254,"lo1":-89.0895,"lo2":-89.0444,"dy":0.0017,"dx":0.0017,"nx":28,"ny":28,"refTime":"2024-10-10T03:00:00:Z","depth":0,"parameterNumber":2,"parameterNumberName":"U-component_of_WINDS"},"data":[0,0,0,0,0,0,0,0,0,0,0,0,0,0,0,0,0,0,0,0,0,0,0,0,0,0,0,0,0,0,0,0,0,0,0,0,0,0,0,0,0,0,0,0,0,0,0,0,0,0,0,0,0,0,0,0,0,0,-1.6062,-1.6061,0,-1.6018,-1.6018,-1.6017,-1.5942,-1.594,-1.5939,-1.5937,-1.5895,-1.5896,-1.5896,0,0,0,0,0,0,0,0,0,0,0,0,0,-1.6082,-1.6082,-1.6062,-1.6061,-1.6061,-1.6018,-1.6018,-1.6017,-1.5942,-1.594,-1.5938,-1.5937,-1.5895,-1.5896,-1.5896,0,0,0,0,0,0,0,0,0,0,0,0,0,-1.6059,-1.6082,-1.6062,-1.6018,-1.6013,-1.6019,-1.6018,-1.6017,-1.5942,-1.594,-1.5938,-1.5936,-1.5895,-1.5895,-1.5896,-1.5941,0,0,-1.5897,-1.5897,0,0,0,0,0,0,0,0,-1.6061,-1.6059,-1.6025,-1.6021,-1.6016,-1.5983,-1.6009,-1.5992,-1.5943,-1.5969,-1.5937,-1.5935,-1.5926,-1.5924,-1.5921,-1.5939,-1.5937,-1.5897,-1.5897,-1.5897,-1.5897,0,0,0,0,0,0,0,-1.6062,-1.606,-1.6044,-1.6024,-1.6019,-1.6001,-1.5996,-1.6006,-1.5961,-1.5967,-1.5961,-1.5957,-1.5924,-1.5921,-1.5919,-1.5936,-1.5897,-1.5897,-1.5897,-1.5897,-1.5992,-1.5994,0,0,0,0,0,0,-1.607,-1.6062,-1.6046,-1.6043,-1.6033,-1.6003,-1.5996,-1.5996,-1.596,-1.5953,-1.5959,-1.5954,-1.5921,-1.5919,-1.5917,-1.597,-1.5897,-1.5897,-1.5898,-1.599,-1.5993,-1.5995,0,0,0,0,0,0,-1.6071,-1.6069,-1.6048,-1.6051,-1.6047,-1.6005,-1.6005,-1.5996,-1.5993,-1.5954,-1.5946,-1.5964,-1.5919,-1.5917,-1.5936,-1.5967,-1.5898,-1.5898,-1.5987,-1.5991,-1.5994,-1.6074,0,0,0,0,0,0,-1.6072,-1.607,-1.6086,-1.6052,-1.6047,-1.6066,-1.6006,-1.5997,-1.5994,-1.5986,-1.5957,-1.595,-1.5917,-1.5936,-1.5936,-1.5967,-1.5898,-1.5984,-1.5989,-1.5993,-1.6069,-1.608,-1.609,0,0,0,0,0,-1.6073,-1.611,-1.6087,-1.6086,-1.6066,-1.6068,-1.6065,-1.6027,-1.5996,-1.6013,-1.5988,-1.5951,-1.5963,-1.5939,-1.5938,-1.5969,-1.5982,-1.5987,-1.5993,-1.6064,-1.6078,-1.609,0,0,0,0,0,0,-1.6149,-1.6105,-1.6079,-1.6106,-1.6092,-1.6055,-1.6075,-1.6042,-1.6036,-1.603,-1.5983,-1.5977,-1.6003,-1.5987,-1.596,-1.6012,-1.5967,-1.5973,-1.6022,-1.6034,-1.6045,-1.6049,-1.5898,0,0,0,0,0,-1.6169,-1.6174,-1.6135,-1.6163,-1.6157,-1.6118,-1.6117,-1.6089,-1.6072,-1.6065,-1.6042,-1.6028,-1.6029,-1.603,-1.6029,-1.6066,-1.606,-1.6087,-1.6097,-1.6106,-1.6112,-1.6134,-1.6146,-1.6012,-1.6012,-1.6012,0,0,-1.6211,-1.6187,-1.6193,-1.6178,-1.6163,-1.6171,-1.6113,-1.6122,-1.6128,-1.6067,-1.6084,-1.6067,-1.6048,-1.6077,-1.6088,-1.6065,-1.6148,-1.6113,-1.612,-1.6121,-1.614,-1.6153,-1.6164,-1.6016,-1.6015,-1.6015,0,0,-1.6291,-1.6272,-1.6295,-1.6282,-1.626,-1.6234,-1.6239,-1.6208,-1.6194,-1.621,-1.6166,-1.6172,-1.6173,-1.6163,-1.6158,-1.6235,-1.6202,-1.6236,-1.6292,-1.6314,-1.6324,-1.6333,-1.6364,-1.6375,-1.6242,-1.6242,-1.6242,0,-1.6346,-1.6354,-1.6311,-1.6324,-1.632,-1.6264,-1.6288,-1.6277,-1.6257,-1.6256,-1.6229,-1.6232,-1.6215,-1.6242,-1.6262,-1.6258,-1.6265,-1.624,-1.6326,-1.6335,-1.6343,-1.6371,-1.6382,-1.6246,-1.6246,-1.6245,-1.6245,0,-1.6424,-1.6431,-1.6451,-1.6433,-1.6431,-1.6449,-1.641,-1.6413,-1.6385,-1.6362,-1.6381,-1.6359,-1.6353,-1.6357,-1.6329,-1.6381,-1.6368,-1.6334,-1.6288,-1.6361,-1.6387,-1.6397,-1.6253,-1.6251,-1.625,-1.6249,0,0,-1.6551,-1.651,-1.6518,-1.651,-1.6483,-1.6488,-1.6505,-1.6499,-1.6504,-1.6491,-1.6506,-1.6509,-1.6479,-1.6473,-1.6444,-1.6462,-1.6529,-1.6427,-1.6426,-1.6449,-1.6588,-1.6615,-1.6628,-1.6506,-1.6508,-1.6509,-1.659,0,-1.6627,-1.6653,-1.6615,-1.665,-1.6657,-1.6605,-1.662,-1.6606,-1.6585,-1.6589,-1.6566,-1.657,-1.6528,-1.6525,-1.6541,-1.6518,-1.6557,-1.6511,-1.6521,-1.6522,-1.653,-1.6641,-1.667,-1.6747,-1.66,-1.6602,-1.6603,0,-1.672,-1.6713,-1.6749,-1.6721,-1.6723,-1.6737,-1.6729,-1.6733,-1.6717,-1.67,-1.6695,-1.666,-1.6676,-1.6631,-1.6654,-1.6624,-1.6625,-1.6615,-1.6617,-1.6618,-1.6569,-1.6649,-1.6771,-1.6784,-1.6618,-1.6617,-1.6616,0,-1.6813,-1.6812,-1.6834,-1.6828,-1.6796,-1.6808,-1.6795,-1.6776,-1.6776,-1.6769,-1.6769,-1.6765,-1.6764,-1.6762,-1.6728,-1.6697,-1.6757,-1.6707,-1.6746,-1.6747,-1.6762,-1.6762,-1.6889,-1.6759,-1.6759,-1.6759,-1.6759,0,-1.6903,-1.6928,-1.6876,-1.689,-1.6916,-1.6873,-1.6901,-1.6883,-1.6867,-1.6878,-1.6832,-1.6843,-1.6796,-1.6803,-1.6776,-1.6801,-1.68,-1.6789,-1.6782,-1.6795,-1.6797,-1.6797,-1.6792,-1.6762,-1.6761,-1.6761,-1.676,0,-1.7013,-1.6978,-1.6999,-1.6967,-1.696,-1.6981,-1.6954,-1.6967,-1.6943,-1.6957,-1.6958,-1.6921,-1.6927,-1.6892,-1.6891,-1.6874,-1.6913,-1.6895,-1.6919,-1.6914,-1.6956,-1.6954,-1.709,-1.7107,-1.6964,-1.6965,-1.6966,0,-1.7074,-1.7092,-1.7062,-1.7066,-1.7055,-1.7061,-1.7061,-1.7019,-1.7021,-1.7005,-1.702,-1.7021,-1.7021,-1.7033,-1.7007,-1.7007,-1.6991,-1.7039,-1.6991,-1.7004,-1.6995,-1.6996,-1.6999,-1.705,-1.7051,-1.7053,-1.7054,0,-1.7187,-1.717,-1.717,-1.7166,-1.7167,-1.7162,-1.7153,-1.7159,-1.7114,-1.7119,-1.7124,-1.7123,-1.7123,-1.7127,-1.7122,-1.711,-1.7076,-1.7069,-1.7078,-1.7093,-1.7107,-1.7103,-1.6949,-1.7067,-1.7065,-1.7064,-1.7064,-1.7063,-1.7276,-1.729,-1.7272,-1.7276,-1.7265,-1.7259,-1.7269,-1.7247,-1.725,-1.7247,-1.7222,-1.7233,-1.7218,-1.7207,-1.7199,-1.7208,-1.7185,-1.7198,-1.7202,-1.7207,-1.7215,-1.7103,-1.7206,-1.7206,-1.7206,-1.7205,-1.7205,0,-1.7389,-1.7375,-1.7379,-1.7369,-1.7372,-1.7338,-1.7327,-1.7333,-1.7343,-1.7331,-1.7331,-1.7339,-1.7342,-1.7317,-1.7318,-1.733,-1.7315,-1.7332,-1.7332,-1.7331,-1.7234,-1.7227,-1.7345,-1.7345,-1.7345,-1.7345,-1.7344,-1.7344,-1.7449,-1.7473,-1.7453,-1.7472,-1.7458,-1.7467,-1.7465,-1.746,-1.745,-1.7461,-1.7463,-1.7446,-1.743,-1.7429,-1.7432,-1.7424,-1.7428,-1.7452,-1.744,-1.735,-1.7337,-1.7324,-1.7317,-1.7452,-1.7452,-1.7535,-1.7536,-1.7537]},{"header":{"parameterUnit":"m.s-1","parameterCategory":1,"la1":30.2991,"la2":30.254,"lo1":-89.0895,"lo2":-89.0444,"dy":0.0017,"dx":0.0017,"nx":28,"ny":28,"refTime":"2024-10-10T03:00:00:Z","depth":0,"parameterNumber":3,"parameterNumberName":"V-component_of_WINDS"},"data":[0,0,0,0,0,0,0,0,0,0,0,0,0,0,0,0,0,0,0,0,0,0,0,0,0,0,0,0,0,0,0,0,0,0,0,0,0,0,0,0,0,0,0,0,0,0,0,0,0,0,0,0,0,0,0,0,0,0,-0.0914,-0.0915,0,-0.097,-0.0971,-0.0971,-0.1027,-0.1027,-0.1028,-0.1029,-0.1086,-0.1087,-0.1088,0,0,0,0,0,0,0,0,0,0,0,0,0,-0.0857,-0.0858,-0.0914,-0.0915,-0.0916,-0.097,-0.0971,-0.0972,-0.1026,-0.1027,-0.1028,-0.1029,-0.1086,-0.1087,-0.1088,0,0,0,0,0,0,0,0,0,0,0,0,0,-0.0894,-0.0858,-0.0914,-0.095,-0.0953,-0.097,-0.0971,-0.0972,-0.1026,-0.1027,-0.1028,-0.1029,-0.1085,-0.1086,-0.1088,-0.1074,0,0,-0.1092,-0.1092,0,0,0,0,0,0,0,0,-0.0892,-0.0896,-0.0944,-0.0947,-0.0951,-0.0993,-0.0972,-0.1006,-0.1026,-0.0999,-0.1029,-0.103,-0.1054,-0.1058,-0.1066,-0.1076,-0.1079,-0.1092,-0.1092,-0.1093,-0.1093,0,0,0,0,0,0,0,-0.0889,-0.0894,-0.0936,-0.0944,-0.0949,-0.0963,-0.097,-0.0978,-0.1019,-0.1001,-0.1005,-0.1011,-0.1056,-0.1065,-0.1068,-0.108,-0.1092,-0.1093,-0.1094,-0.1094,-0.1086,-0.1085,0,0,0,0,0,0,-0.0881,-0.0892,-0.0935,-0.0938,-0.0924,-0.0963,-0.0971,-0.0978,-0.102,-0.1027,-0.101,-0.1013,-0.1062,-0.1066,-0.107,-0.1059,-0.1093,-0.1094,-0.1095,-0.1087,-0.1085,-0.1084,0,0,0,0,0,0,-0.088,-0.0885,-0.0932,-0.0916,-0.0923,-0.0963,-0.0971,-0.0979,-0.0987,-0.1026,-0.1034,-0.1011,-0.1063,-0.1068,-0.1073,-0.1062,-0.1095,-0.1096,-0.1088,-0.1086,-0.1085,-0.1036,0,0,0,0,0,0,-0.0878,-0.0884,-0.0878,-0.0915,-0.0924,-0.0934,-0.097,-0.0979,-0.0989,-0.0994,-0.1029,-0.1036,-0.1064,-0.1071,-0.1075,-0.1064,-0.1097,-0.1089,-0.1087,-0.1085,-0.1039,-0.1033,-0.1028,0,0,0,0,0,-0.0876,-0.0861,-0.0878,-0.0883,-0.0918,-0.0933,-0.0938,-0.0971,-0.0988,-0.0984,-0.1009,-0.1035,-0.1062,-0.1071,-0.1075,-0.1065,-0.109,-0.1088,-0.1085,-0.1041,-0.1034,-0.1028,0,0,0,0,0,0,-0.0821,-0.0867,-0.0885,-0.0883,-0.0904,-0.0943,-0.0938,-0.0962,-0.0978,-0.0982,-0.1022,-0.1029,-0.1031,-0.1048,-0.1057,-0.1056,-0.108,-0.1078,-0.1045,-0.1038,-0.1033,-0.103,-0.1098,0,0,0,0,0,-0.0809,-0.0817,-0.0857,-0.0851,-0.086,-0.0897,-0.0905,-0.0928,-0.0952,-0.0961,-0.0987,-0.1009,-0.1023,-0.1031,-0.1046,-0.1041,-0.1051,-0.1036,-0.1031,-0.1026,-0.1025,-0.1028,-0.1022,-0.1077,-0.1077,-0.1077,0,0,-0.0784,-0.081,-0.0812,-0.0841,-0.086,-0.0869,-0.0904,-0.0911,-0.0919,-0.0962,-0.097,-0.0989,-0.1017,-0.1018,-0.1019,-0.1032,-0.1012,-0.1024,-0.102,-0.1021,-0.1025,-0.1019,-0.1015,-0.1076,-0.1076,-0.1076,0,0,-0.0743,-0.0762,-0.0761,-0.078,-0.0809,-0.0833,-0.0833,-0.0869,-0.0884,-0.0892,-0.0925,-0.0935,-0.0957,-0.0976,-0.0989,-0.0957,-0.0983,-0.0961,-0.0933,-0.0935,-0.0931,-0.0927,-0.0919,-0.0915,-0.0959,-0.0959,-0.0959,0,-0.0708,-0.0723,-0.0757,-0.0763,-0.0776,-0.0816,-0.0816,-0.0832,-0.0864,-0.0872,-0.0886,-0.0917,-0.0938,-0.0946,-0.0939,-0.0946,-0.0949,-0.0958,-0.0928,-0.0925,-0.0923,-0.0915,-0.0912,-0.0957,-0.0957,-0.0957,-0.0957,0,-0.068,-0.069,-0.0685,-0.0716,-0.0728,-0.073,-0.0767,-0.0774,-0.0797,-0.0821,-0.083,-0.0857,-0.0879,-0.0882,-0.0903,-0.0894,-0.0901,-0.0921,-0.0946,-0.0914,-0.0908,-0.0905,-0.0953,-0.0954,-0.0954,-0.0955,0,0,-0.0607,-0.0658,-0.0656,-0.0672,-0.0708,-0.0716,-0.0721,-0.0744,-0.0751,-0.0772,-0.0779,-0.0798,-0.0817,-0.0832,-0.0856,-0.0857,-0.0834,-0.0877,-0.0879,-0.0871,-0.0829,-0.0815,-0.0811,-0.0851,-0.085,-0.085,-0.0827,0,-0.0575,-0.0587,-0.0619,-0.0622,-0.0633,-0.0672,-0.0677,-0.07,-0.0722,-0.0735,-0.076,-0.0774,-0.0797,-0.0807,-0.0809,-0.0836,-0.0827,-0.0838,-0.086,-0.086,-0.0854,-0.0807,-0.0793,-0.077,-0.0825,-0.0824,-0.0824,0,-0.0539,-0.0559,-0.0563,-0.06,-0.0606,-0.061,-0.0634,-0.0645,-0.0673,-0.0689,-0.0706,-0.0733,-0.0743,-0.0765,-0.078,-0.0787,-0.0798,-0.0812,-0.0812,-0.0818,-0.0841,-0.0814,-0.0763,-0.0761,-0.082,-0.082,-0.0821,0,-0.0489,-0.0516,-0.0523,-0.0535,-0.0578,-0.058,-0.0598,-0.0627,-0.0639,-0.066,-0.0669,-0.069,-0.0703,-0.072,-0.0753,-0.0765,-0.0765,-0.0789,-0.0781,-0.078,-0.0781,-0.0781,-0.0734,-0.0783,-0.0783,-0.0784,-0.0784,0,-0.0452,-0.0453,-0.0502,-0.0507,-0.051,-0.0547,-0.055,-0.0572,-0.0597,-0.0608,-0.0641,-0.0651,-0.0693,-0.0707,-0.0733,-0.0743,-0.0748,-0.0763,-0.077,-0.0761,-0.076,-0.077,-0.0774,-0.0783,-0.0783,-0.0783,-0.0783,0,-0.0398,-0.043,-0.0441,-0.048,-0.0491,-0.0492,-0.0527,-0.0533,-0.0558,-0.0571,-0.0576,-0.0615,-0.0634,-0.0668,-0.0696,-0.0714,-0.072,-0.0731,-0.0711,-0.0716,-0.0707,-0.0708,-0.0667,-0.0665,-0.0713,-0.0712,-0.0712,0,-0.0373,-0.0375,-0.0416,-0.0425,-0.0442,-0.0456,-0.0469,-0.0506,-0.0518,-0.0551,-0.0554,-0.0576,-0.0595,-0.0624,-0.0656,-0.0678,-0.0691,-0.0676,-0.0695,-0.0687,-0.0695,-0.0695,-0.0697,-0.0672,-0.0671,-0.067,-0.067,0,-0.0326,-0.0342,-0.0359,-0.0383,-0.0397,-0.0417,-0.0439,-0.0445,-0.0487,-0.0499,-0.0519,-0.0534,-0.0564,-0.0586,-0.0614,-0.0634,-0.066,-0.0663,-0.0663,-0.0655,-0.0645,-0.0653,-0.0702,-0.0664,-0.0665,-0.0665,-0.0666,-0.0666,-0.0288,-0.0293,-0.0323,-0.0342,-0.0362,-0.0382,-0.0391,-0.0417,-0.0434,-0.0462,-0.0482,-0.0501,-0.0531,-0.057,-0.0589,-0.0605,-0.0617,-0.0616,-0.0616,-0.0616,-0.0614,-0.064,-0.061,-0.061,-0.061,-0.0611,-0.0611,0,-0.0246,-0.0267,-0.0283,-0.0314,-0.0329,-0.0351,-0.0377,-0.0388,-0.0405,-0.043,-0.0449,-0.0473,-0.0495,-0.0528,-0.0553,-0.056,-0.0573,-0.0566,-0.0567,-0.0572,-0.06,-0.0599,-0.0555,-0.0555,-0.0555,-0.0555,-0.0555,-0.0555,-0.0226,-0.0236,-0.0256,-0.0278,-0.0299,-0.0318,-0.0332,-0.0351,-0.0372,-0.0397,-0.0416,-0.0437,-0.0466,-0.0494,-0.0516,-0.0525,-0.0534,-0.0524,-0.0537,-0.0564,-0.0569,-0.0574,-0.0573,-0.0525,-0.0525,-0.0507,-0.0507,-0.0507]}]]